Weather History for Fremont, NE

Change the Weather History Date:

Thursday, February 20, 2014

  Actual Average Record
Temperature  
Mean Temperature 32 °F -  
Max Temperature 40 °F 42 °F 67 °F (1991)
Min Temperature 25 °F 21 °F -5 °F (2008)
Degree Days  
Heating Degree Days 32    
Moisture  
Dew Point 29 °F    
Average Humidity 82    
Maximum Humidity 100    
Minimum Humidity 67    
Precipitation  
Precipitation 0.27 in - - ()
Sea Level Pressure  
Sea Level Pressure 29.62 in    
Wind  
Wind Speed 12 mph (NW)    
Max Wind Speed 34 mph    
Max Gust Speed 40 mph    
Visibility 8 miles    
Events Rain , Snow    
Averages and records for this station are not official NWS values.
T = Trace of Precipitation, MM = Missing Value Source: NWS Daily Summary

Daily Weather History Graph

Daily Weather History Graph

Search for Another Location

Airport:

Trip Planner

Search our weather history database for the weather conditions in past years. The results will help you decide how hot, cold, wet, or windy it might be!

Date:

Astronomy

Feb. 20, 2014 Rise Set
Actual Time 7:14 AM CST 6:06 PM CST
Civil Twilight 6:46 AM CST 6:34 PM CST
Nautical Twilight 6:13 AM CST 7:06 PM CST
Astronomical Twilight 5:41 AM CST 7:38 PM CST
Moon No Moon Rise 9:53 AM CST (2/20)
Length of Visible Light 11h 48m
Length of Day
10h 51m
Waning Gibbous, 70% of the Moon is Illuminated
Feb 20
Waning Gibbous
Feb 22
Last Quarter
Mar 1
New
Mar 8
First Quarter
Mar 16
Full

Hourly Weather History & Observations

Time (CST) Temp. Windchill Dew Point Humidity Pressure Visibility Wind Dir Wind Speed Gust Speed Precip Events Conditions
12:15 AM 36.5 °F - 31.5 °F 82% 29.57 in 10.0 mi Calm Calm - N/A   Clear
12:35 AM 37.6 °F - 31.6 °F 79% 29.57 in 10.0 mi Calm Calm - N/A   Scattered Clouds
12:55 AM 33.6 °F - 29.3 °F 84% 29.57 in 10.0 mi Calm Calm - N/A   Mostly Cloudy
1:15 AM 33.4 °F - 29.3 °F 85% 29.57 in 10.0 mi Calm Calm - N/A   Mostly Cloudy
1:35 AM 32.5 °F 28.1 °F 29.1 °F 87% 29.57 in 10.0 mi NNW 4.6 mph - N/A   Overcast
1:55 AM 33.4 °F - 30.2 °F 88% 29.57 in 10.0 mi Calm Calm - N/A   Mostly Cloudy
2:15 AM 33.8 °F - 30.4 °F 87% 29.57 in 10.0 mi Calm Calm - N/A   Mostly Cloudy
2:35 AM 33.8 °F - 30.2 °F 87% 29.57 in 10.0 mi Calm Calm - N/A   Mostly Cloudy
2:55 AM 33.8 °F - 30.4 °F 87% 29.56 in 10.0 mi Calm Calm - N/A   Overcast
3:15 AM 34.7 °F 28.8 °F 31.3 °F 87% 29.57 in 10.0 mi NNW 6.9 mph - N/A   Overcast
3:35 AM 36.7 °F 30.5 °F 31.6 °F 82% 29.58 in 10.0 mi NNW 8.1 mph - N/A   Overcast
3:55 AM 36.9 °F 30.1 °F 31.6 °F 81% 29.58 in 10.0 mi NW 9.2 mph - N/A   Overcast
4:15 AM 37.4 °F 32.8 °F 31.8 °F 80% 29.57 in 10.0 mi NW 5.8 mph - N/A   Overcast
4:35 AM 37.0 °F 31.0 °F 31.6 °F 81% 29.57 in 10.0 mi West 8.1 mph - N/A   Overcast
4:55 AM 37.8 °F 29.8 °F 30.6 °F 75% 29.53 in 10.0 mi NNW 12.7 mph 19.6 mph N/A   Overcast
5:15 AM 37.6 °F 29.1 °F 31.8 °F 80% 29.50 in 10.0 mi NNW 13.8 mph 19.6 mph N/A   Overcast
5:35 AM 38.3 °F 30.5 °F 32.0 °F 78% 29.56 in 10.0 mi NNW 12.7 mph 19.6 mph N/A   Overcast
5:55 AM 38.5 °F 28.6 °F 32.0 °F 78% 29.54 in 10.0 mi NNW 19.6 mph 27.6 mph N/A   Overcast
6:15 AM 38.5 °F 29.6 °F 32.2 °F 78% 29.54 in 10.0 mi NNW 16.1 mph 25.3 mph N/A   Overcast
6:35 AM 38.3 °F 30.1 °F 32.0 °F 78% 29.54 in 10.0 mi NNW 13.8 mph 24.2 mph N/A   Overcast
6:55 AM 38.7 °F 30.5 °F 32.0 °F 77% 29.56 in 10.0 mi NNW 13.8 mph 24.2 mph N/A   Overcast
7:15 AM 37.9 °F 27.9 °F 32.4 °F 80% 29.56 in 10.0 mi North 19.6 mph 28.8 mph N/A Rain Light Rain
7:35 AM 36.0 °F 26.3 °F 33.4 °F 91% 29.55 in 7.0 mi NNW 16.1 mph 27.6 mph N/A Rain Light Rain
7:55 AM 34.0 °F 23.8 °F 34.0 °F 100% 29.56 in 1.5 mi NNW 16.1 mph 23.0 mph 0.02 in Snow Light Snow
8:15 AM 33.4 °F 22.7 °F 33.4 °F 100% 29.55 in 0.5 mi NNW 17.3 mph 20.7 mph N/A Snow Snow
8:35 AM 33.4 °F 22.0 °F 33.4 °F 100% 29.56 in 0.8 mi NW 19.6 mph 26.5 mph 0.01 in Snow Snow
8:55 AM 33.3 °F 21.5 °F 33.3 °F 100% 29.57 in 0.8 mi NW 20.7 mph 25.3 mph 0.02 in Snow Light Snow
9:15 AM 33.8 °F 22.5 °F 33.8 °F 100% 29.56 in 1.0 mi NW 19.6 mph 28.8 mph 0.02 in Snow Light Snow
9:35 AM 33.8 °F 22.8 °F 33.8 °F 100% 29.60 in 0.8 mi NW 18.4 mph 25.3 mph 0.07 in Snow Light Snow
9:55 AM 33.8 °F 22.2 °F 33.8 °F 100% 29.58 in 0.8 mi NW 20.7 mph 27.6 mph 0.10 in Snow Light Snow
10:15 AM 33.4 °F 23.5 °F 33.4 °F 100% 29.58 in 0.5 mi NNW 15.0 mph - 0.01 in Snow Snow
10:35 AM 33.4 °F 22.7 °F 33.4 °F 100% 29.58 in 0.8 mi NW 17.3 mph 23.0 mph 0.03 in Snow Light Snow
10:55 AM 33.8 °F 24.3 °F 33.8 °F 100% 29.58 in 1.2 mi NW 13.8 mph - 0.06 in Snow Light Snow
11:15 AM 33.8 °F 23.9 °F 33.8 °F 100% 29.58 in 1.0 mi NW 15.0 mph 20.7 mph 0.03 in Snow Light Snow
11:35 AM 33.8 °F 23.5 °F 33.8 °F 100% 29.56 in 1.2 mi NW 16.1 mph - 0.06 in Snow Light Snow
11:55 AM 33.8 °F 22.5 °F 33.8 °F 100% 29.57 in 1.5 mi NW 19.6 mph 26.5 mph 0.07 in Snow Light Snow
12:15 PM 34.0 °F 23.8 °F 34.0 °F 100% 29.57 in 3.0 mi NW 16.1 mph 23.0 mph N/A Snow Light Snow
12:35 PM 34.5 °F 24.1 °F 34.5 °F 100% 29.56 in 10.0 mi NW 17.3 mph 27.6 mph N/A Rain Light Rain
12:55 PM 35.1 °F 25.2 °F 34.9 °F 99% 29.55 in 10.0 mi NW 16.1 mph - N/A   Clear
1:15 PM 36.1 °F 27.3 °F 34.9 °F 95% 29.54 in 10.0 mi WNW 13.8 mph - N/A   Clear
1:35 PM 36.9 °F 28.7 °F 35.1 °F 93% 29.54 in 10.0 mi WNW 12.7 mph - N/A   Clear
1:55 PM 38.7 °F 30.1 °F 34.9 °F 86% 29.54 in 10.0 mi WNW 15.0 mph - N/A   Clear
2:15 PM 40.1 °F 31.3 °F 32.5 °F 74% 29.55 in 10.0 mi WNW 17.3 mph - N/A   Clear
2:35 PM 40.1 °F 28.8 °F 31.6 °F 72% 29.56 in 10.0 mi WNW 28.8 mph 35.7 mph N/A   Mostly Cloudy
2:55 PM 40.3 °F 29.5 °F 30.4 °F 68% 29.56 in 10.0 mi WNW 26.5 mph 34.5 mph N/A   Mostly Cloudy
3:15 PM 39.7 °F 27.9 °F 30.6 °F 70% 29.58 in 10.0 mi WNW 31.1 mph 36.8 mph N/A   Overcast
3:35 PM 38.3 °F 25.8 °F 28.0 °F 67% 29.60 in 10.0 mi WNW 32.2 mph 40.3 mph N/A   Overcast
3:55 PM 37.6 °F 25.2 °F 29.1 °F 72% 29.62 in 10.0 mi WNW 29.9 mph 38.0 mph N/A   Overcast
4:15 PM 36.9 °F 24.9 °F 28.4 °F 71% 29.62 in 10.0 mi WNW 26.5 mph 29.9 mph N/A   Overcast
4:35 PM 36.7 °F 25.7 °F 28.2 °F 71% 29.63 in 10.0 mi West 21.9 mph 35.7 mph N/A   Overcast
4:55 PM 36.0 °F 23.2 °F 27.9 °F 72% 29.65 in 10.0 mi WNW 28.8 mph 35.7 mph N/A   Overcast
5:15 PM 34.5 °F 20.8 °F 27.0 °F 74% 29.67 in 10.0 mi WNW 31.1 mph 36.8 mph N/A   Overcast
5:35 PM 33.3 °F 18.5 °F 26.2 °F 75% 29.69 in 10.0 mi West 34.5 mph 40.3 mph N/A   Overcast
5:55 PM 32.2 °F 17.4 °F 24.6 °F 74% 29.71 in 10.0 mi WNW 32.2 mph 40.3 mph N/A   Overcast
6:15 PM 32.0 °F 18.1 °F 24.3 °F 73% 29.71 in 10.0 mi WNW 27.6 mph 33.4 mph N/A   Overcast
6:35 PM 30.7 °F 16.7 °F 22.3 °F 71% 29.72 in 10.0 mi WNW 26.5 mph 39.1 mph N/A   Overcast
6:55 PM 30.2 °F 15.7 °F 22.8 °F 74% 29.73 in 10.0 mi WNW 27.6 mph 34.5 mph N/A   Overcast
7:15 PM 29.7 °F 14.7 °F 21.7 °F 72% 29.74 in 10.0 mi WNW 28.8 mph 33.4 mph N/A   Overcast
7:35 PM 29.7 °F 16.7 °F 21.7 °F 72% 29.74 in 10.0 mi WNW 20.7 mph 29.9 mph N/A   Overcast
7:55 PM 29.5 °F 16.2 °F 21.2 °F 71% 29.74 in 10.0 mi WNW 21.9 mph 31.1 mph N/A   Overcast
8:15 PM 29.7 °F 16.1 °F 21.0 °F 70% 29.74 in 10.0 mi WNW 23.0 mph 33.4 mph N/A   Overcast
8:35 PM 29.7 °F 15.0 °F 21.2 °F 71% 29.74 in 10.0 mi WNW 27.6 mph 35.7 mph N/A   Overcast
8:55 PM 29.3 °F 15.0 °F 19.8 °F 68% 29.75 in 10.0 mi WNW 25.3 mph 39.1 mph N/A   Overcast
9:15 PM 28.9 °F 14.5 °F 20.1 °F 70% 29.75 in 10.0 mi WNW 25.3 mph 34.5 mph N/A   Overcast
9:35 PM 28.2 °F 13.6 °F 19.0 °F 68% 29.76 in 10.0 mi WNW 25.3 mph 36.8 mph N/A   Overcast
9:55 PM 27.3 °F 13.3 °F 18.7 °F 70% 29.76 in 10.0 mi WNW 21.9 mph 33.4 mph N/A   Mostly Cloudy
10:15 PM 26.6 °F 11.7 °F 18.5 °F 71% 29.76 in 10.0 mi WNW 24.2 mph 29.9 mph N/A   Scattered Clouds
10:35 PM 26.4 °F 12.5 °F 19.0 °F 74% 29.76 in 10.0 mi WNW 20.7 mph 28.8 mph N/A   Clear
10:55 PM 25.7 °F 12.3 °F 19.4 °F 77% 29.76 in 10.0 mi WNW 18.4 mph 24.2 mph N/A   Clear
11:15 PM 25.7 °F 12.7 °F 19.2 °F 76% 29.75 in 10.0 mi West 17.3 mph - N/A   Clear
11:35 PM 25.3 °F 13.1 °F 19.2 °F 78% 29.75 in 10.0 mi West 15.0 mph 20.7 mph N/A   Clear
11:55 PM 25.0 °F 12.6 °F 19.0 °F 78% 29.75 in 10.0 mi West 15.0 mph - N/A   Clear